Hundvaag 1 weather for Jul 1994
Month no. 85
Obs.
Da.
Temp. Dew Point Precip. Wind
Speed
Wind gusts Cloud cover Press. Humidity Wind dir. Sunny OPT
01.07.1994 10,1   0,0             1  
02.07.1994 13,7   0,0             1  
03.07.1994 14,4   0,0             1  
04.07.1994 14,7   0,0             1  
05.07.1994 19,1   0,0             1  
06.07.1994 14,5   0,0             1  
07.07.1994 14,3   0,0             1  
08.07.1994 13,6   0,0                
09.07.1994 13,1   0,0             1  
10.07.1994 17,0   2,0             1  
11.07.1994 14,9   3,1             1  
12.07.1994 17,1   0,9             1  
13.07.1994 20,3   0,0                
14.07.1994 16,7   0,0             1  
15.07.1994 14,3   0,0                
16.07.1994 14,4   1,7             1  
17.07.1994 14,4   0,0             1  
18.07.1994 18,4   0,0             1  
19.07.1994 16,9   0,0             1  
20.07.1994 18,2   0,0             1  
21.07.1994 16,1   0,0             1  
22.07.1994 17,1   1,1             1  
23.07.1994 15,0   0,2             1  
24.07.1994 16,7   0,0             1  
25.07.1994 24,0   0,0             1  
26.07.1994 19,0   0,0             1  
27.07.1994 19,0   4,0             1  
28.07.1994 14,0   26,8                
29.07.1994 16,0   0,0             1  
30.07.1994 18,0   0,0             1  
31.07.1994 18,3   0,0             1  
Avrg/Sum 16,2   39,8             27